User: anonymous   Login
Location: Coffee Creek Observatory
(38.8077°N, 94.7179°W)
Time: 08:33:31
(UTC-05:00)
Language:

Lacrosse 4 Rocket - Orbit

View from above orbital plane
View from above orbital plane
View from above satellite
View from above satellite

Ground track
Ground track

The orbit data is extracted from the following two-line orbital elements,

1 26474U 00047B   17117.89709686 +.00000303 +00000-0 +37577-4 0  9993
2 26474 067.9950 350.5982 0055150 013.6944 346.5678 14.95468629907780
Epoch (UTC): 27 April 2017 21:31:49
Eccentricity: 0.0055150
inclination: 67.9950°
perigee height: 542 km
apogee height: 619 km
right ascension of ascending node: 350.5982°
argument of perigee: 13.6944°
revolutions per day: 14.95468629
mean anomaly at epoch: 346.5678°
orbit number at epoch: 90778

The dashed part of the orbit path shows where the satellite is in the earth's shadow,  

DLR